Tracking 18852 objects as of 23-Nov-2017
HD Live streaming from Space Station
objects crossing your sky now

SL-16 DEB

Track SL-16 DEB now!
10-day predictions


NORAD ID: 36030
Int'l Code: 1996-051M
Perigee: 656.7 km
Apogee: 678.0 km
Inclination: 70.9 °
Period: 97.9 minutes
Semi major axis: 7038 km
RCS: 0.0174 m2 (small)
Launch date: September 4, 1996
Source: Commonwealth of Independent States (former USSR) (CIS)
Launch site: TYURATAM MISSILE AND SPACE COMPLEX (TTMTR)

Note: This is SATELLITE DEBRIS
aabbcc
Your satellite tracking list
Your tracking list is empty




NASA's NSSDC Master Catalog

Two Line Element Set (TLE):
1 36030U 96051M   17324.30429061  .00007180  00000-0  11960-2 0  9990
2 36030  70.8549 194.1348 0015124 149.4766 210.7268 14.70270786425185
Source of the keplerian elements: AFSPC